www.pogodaiklimat.ru
ПОГОДА в Акстале
Время
(UTC), дата
10 6.12
11 6.12
12 6.12
13 6.12
14 6.12
15 6.12
16 6.12
17 6.12
18 6.12
19 6.12
20 6.12
21 6.12
22 6.12
23 6.12
00 7.12
01 7.12
02 7.12
03 7.12
04 7.12
05 7.12
06 7.12
07 7.12
08 7.12
09 7.12
10 7.12
11 7.12
12 7.12
13 7.12
14 7.12
15 7.12
16 7.12
17 7.12
18 7.12
19 7.12
20 7.12
21 7.12
22 7.12
23 7.12
00 8.12
01 8.12
02 8.12
03 8.12
04 8.12
05 8.12
06 8.12
07 8.12
08 8.12
09 8.12
10 8.12
11 8.12
12 8.12
13 8.12
14 8.12
15 8.12
16 8.12
17 8.12
18 8.12
19 8.12
20 8.12
21 8.12
22 8.12
23 8.12
00 9.12
01 9.12
02 9.12
03 9.12
04 9.12
05 9.12
06 9.12
07 9.12
08 9.12
09 9.12
10 9.12
11 9.12
12 9.12
13 9.12
14 9.12
15 9.12
16 9.12
17 9.12
18 9.12
19 9.12
20 9.12
21 9.12
22 9.12
23 9.12
00 10.12
01 10.12
02 10.12
03 10.12
04 10.12
05 10.12
06 10.12
07 10.12
08 10.12
09 10.12
10 10.12
11 10.12
12 10.12
13 10.12
14 10.12
15 10.12
16 10.12
17 10.12
18 10.12
19 10.12
20 10.12
21 10.12
22 10.12
23 10.12
00 11.12
01 11.12
02 11.12
03 11.12
04 11.12
05 11.12
06 11.12
07 11.12
08 11.12
09 11.12
10 11.12
11 11.12
12 11.12
13 11.12
14 11.12
15 11.12
16 11.12
17 11.12
18 11.12
19 11.12
20 11.12
21 11.12
22 11.12
23 11.12
00 12.12
01 12.12
02 12.12
03 12.12
04 12.12
05 12.12
06 12.12
07 12.12
08 12.12
09 12.12
10 12.12
11 12.12
12 12.12
13 12.12
14 12.12
15 12.12
16 12.12
17 12.12
18 12.12
19 12.12
20 12.12
21 12.12
22 12.12
23 12.12
00 13.12
01 13.12
02 13.12
03 13.12
04 13.12
05 13.12
06 13.12
07 13.12
08 13.12
09 13.12
Ветер
(напр.,м/с)
Видим. Явления Облачность Т
(С)
Тd
(С)
f
(%)
Тe
(С)
Тes
(С)
Комфортность P
(гПа)
Po
(гПа)
Тmin
(С)
Tmax
(С)
R
(мм)
R24
(мм)
S
(см)
З 7-11
{11}
40 км {дождь, морось} 10/10 420 м
[]
+8.6 988.9 978.4
З 8-12
{13}
45 км {дождь, морось} 9/9 570 м
[]
+8.6 989.4 978.9
ЮЗ 6-10
{13}
45 км {дождь, морось} 10/10 570 м
[]
+8.3 990.2 979.7 0.6
З 8-11
{12}
29 км 10/10 480 м
[]
+8.0 990.4 979.9
З 7-11
{11}
35 км 10/10 600 м
[]
+8.3 990.9 980.4
З 4-6
{10}
40 км 10/10 570 м
[]
+8.0 991.4 980.8
З 7-8
{8}
35 км 10/10 570 м
[]
+7.6 991.2 980.6
ЮЗ 6-7
{9}
13 км морось 10/10 330 м
[]
+7.2 991.2 980.6 0.1
Ю 4-5
{7}
4000 м морось {дождь} 10/10 150 м
[]
+6.5 990.8 980.2 +6.4 +9.0 1
ЮЗ 8-10
{10}
3200 м морось {дождь} ?/? +7.2 990.3 979.7 0.7
ЮЗ 7-9
{11}
4000 м морось {дождь} 10/10 150 м
[]
+7.3 990.0 979.4 0.4
ЮЗ 8-9
{9}
16 км в посл. час дождь {ливн. осадки, морось} 10/10 270 м
[]
+7.3 989.6 979.0 0.1
ЮЗ 10-12
{12}
12 км дождь {ливн. осадки, морось} 10/10 180 м
[]
+7.0 988.8 978.2 1
ЮЗ 9-11
{12}
16 км слаб. дождь {морось} 10/10 180 м
[]
+6.6 988.4 977.8 0.7
ЮЗ 7-9
{11}
8000 м в посл. час дождь {ливн. осадки, морось} 10/10 210 м
[]
+6.4 987.7 977.1 3
ЮЗ 8-10
{10}
45 км {дождь} 10/10 180 м
[]
+6.4 987.0 976.4
ЮЗ 8-11
{12}
8000 м слаб. дождь 10/10 180 м
[]
+6.4 986.4 975.8
ЮЗ 8-9
{9}
35 км в посл. час дождь {ливн. осадки} 10/10 330 м
[]
+6.5 985.8 975.2 0.3
ЮЗ 7-9
{9}
40 км слаб. ливневой дождь 10/10 270 м
[]
+6.7 984.9 974.4 0.1
ЮЗ 6-8
{9}
12 км слаб. ливневой дождь 10/10 210 м
[]
+6.7 984.3 973.8 0.1
З 12-16
{17}
50 км в посл. час дождь {ливн. осадки} 10/10 210 м
[]
+7.2 984.9 974.4 +6.3 +7.9 4
З 6-10
{15}
45 км {дождь, осадки} 10/10 240 м
[]
+6.1 985.8 975.2
З 3-5
{7}
8000 м слаб. ливневой дождь {морось} 10/10 180 м
[]
+5.8 986.1 975.5
З 8-11
{11}
29 км в посл. час морось {ливн. осадки, дождь} 10/10 210 м
[]
+6.6 986.3 975.7
З 9-12
{14}
10 км слаб. дождь {морось} 10/10 240 м
[]
+6.0 986.8 976.2 0.1
СЗ 7-10
{12}
45 км слаб. морось {дождь} 10/10 270 м
[]
+4.5 987.7 977.0 0.1
З 11-13
{14}
50 км в посл. час дождь {ливн. осадки, морось} 8/8 400 м
[]
+4.8 988.7 978.0 0.3
З 8-11
{13}
50 км {дождь} 9/9 480 м
[]
+4.5 989.5 978.8
З 9-12
{13}
45 км 9/9 600 м
[]
+4.4 990.6 979.9
З 8-11
{12}
45 км 8/8 800 м
[]
+4.0 991.8 981.1
З 8-10
{10}
45 км слаб. ливневой дождь 8/8 720 м
[]
+3.8 992.6 981.9
З 8-9
{11}
50 км {ливн. осадки, морось} ясно +3.3 993.8 983.0
СЗ 7-10
{10}
50 км {ливн. осадки, морось} ясно +2.8 994.6 983.8 +2.7 +7.2 0.3
З 5-7
{8}
50 км ясно +2.5 995.6 984.8
З 5-7
{7}
50 км ясно +2.1 996.0 985.1
З 5-7
{7}
50 км ясно +1.7 996.5 985.6
З 8-10
{10}
45 км ясно +1.9 996.7 985.8
З 5-7
{10}
50 км ясно +1.5 996.6 985.7
З 4-6
{7}
45 км ясно +1.6 996.7 985.8
З 6-8
{8}
45 км ясно +1.7 996.2 985.3
З 7-8
{8}
45 км ясно +1.9 995.4 984.5
ЮЗ 6-7
{9}
45 км ясно +1.8 994.3 983.5
ЮЗ 5-6
{7}
45 км ясно +1.8 993.5 982.7
ЮЗ 6-7
{7}
40 км 1/1 840 м
[]
+2.3 992.3 981.5
ЮЗ 6-7
{7}
14 км слаб. дождь {морось} 10/10 480 м
[]
+3.0 990.9 980.1 +1.3 +3.0 0.9
Ю 9-11
{11}
13 км слаб. дождь 10/10 240 м
[]
+3.8 988.4 977.7 2
ЮВ 9-10
{11}
6000 м слаб. снег {дождь} 10/10 270 м
[]
+3.6 986.3 975.6 0.7
Ю 10-12
{13}
15 км слаб. дождь 10/10 210 м
[]
+3.9 983.6 973.0 1
Ю 15-18
{18}
17 км слаб. дождь 10/10 270 м
[]
+6.0 980.5 970.0 0.4
Ю 14-17
{18}
14 км морось {снег, дождь} 10/10 300 м
[]
+6.4 978.5 968.0 0.5
Ю 11-14
{17}
6000 м слаб. дождь {морось} 10/10 210 м
[]
+6.7 976.9 966.5 5
Ю 9-12
{14}
7000 м в посл. час осадки 10/10 210 м
[]
+6.9 976.1 965.7
ЮЗ 9-11
{11}
35 км в посл. час дождь {ливн. осадки} 10/10 210 м
[]
+7.3 975.3 964.9 0.3
ЮЗ 11-14
{14}
28 км в посл. час дождь {ливн. осадки} 10/10 480 м
[]
+7.9 975.2 964.8 0.3
З 11-16
{19}
19 км {ливн. осадки, дождь} 8/8 800 м
[]
+7.7 975.9 965.5
З 11-15
{15}
18 км {ливн. осадки, дождь} 5/5 900 м
[]
+7.2 976.7 966.3
З 11-15
{15}
17 км {ливн. осадки, дождь} ясно +6.8 977.0 966.6 +3.0 +8.4 5
З 11-14
{16}
23 км ясно +6.6 977.4 966.9
ЮЗ 12-18
{18}
22 км 1/1 800 м
[]
+6.4 977.3 966.8
З 9-15
{16}
22 км 6/6 900 м
[]
+6.2 977.8 967.3
З 9-13
{14}
28 км 9/9 630 м
[]
+6.1 978.1 967.6
ЮЗ 9-11
{13}
23 км 10/10 600 м
[]
+6.1 978.5 968.0
ЮЗ 9-13
{14}
26 км 10/10 600 м
[]
+5.9 978.5 968.0
ЮЗ 9-13
{13}
28 км 10/10 630 м
[]
+5.9 979.1 968.6
ЮЗ 10-12
{13}
27 км 5/5 700 м
[]
+5.8 979.0 968.5
ЮЗ 9-12
{13}
35 км 10/10 630 м
[]
+5.9 979.5 969.0
ЮЗ 10-12
{12}
35 км 10/10 600 м
[]
+5.7 979.7 969.2
ЮЗ 10-14
{14}
35 км 10/10 600 м
[]
+5.7 980.0 969.5
ЮЗ 9-13
{14}
30 км в посл. час морось {ливн. осадки} 9/9 660 м
[]
+5.9 980.5 970.0 +5.6 +6.8
ЮЗ 8-12
{12}
15 км слаб. ливневой дождь {морось} 10/10 630 м
[]
+5.9 981.2 970.7
ЮЗ 9-11
{11}
21 км морось {ливн. осадки} 10/10 600 м
[]
+5.9 981.9 971.4
ЮЗ 10-12
{12}
30 км в посл. час дождь {ливн. осадки, морось} 8/8 600 м
[]
+5.9 982.4 971.9
ЮЗ 8-11
{12}
35 км {ливн. осадки, морось} 10/10 1000 м
[]
+6.1 982.8 972.3
ЮЗ 8-10
{11}
29 км {ливн. осадки, морось} 9/9 720 м
[]
+6.3 982.9 972.4
ЮЗ 8-11
{11}
35 км {ливн. осадки, морось} 10/10 630 м
[]
+6.0 983.3 972.8
ЮЗ 7-11
{11}
29 км морось 8/8 420 м
[]
+5.8 984.1 973.5 0.1
ЮЗ 5-9
{9}
45 км в посл. час морось {ливн. осадки, дождь} 5/5 600 м
[]
+5.7 984.5 973.9
ЮЗ 7-9
{9}
40 км {ливн. осадки, дождь} 10/10 1200 м
[]
+5.6 985.1 974.5
ЮЗ 4-6
{9}
45 км {ливн. осадки, морось} 1/1 1170 м
[]
+5.1 986.0 975.4
ЮЗ 4-4
{5}
45 км {ливн. осадки, морось} 5/5 960 м
[]
+5.1 986.7 976.1
З 2-2
{4}
40 км {ливн. осадки, морось} 10/10 630 м
[]
+4.6 987.9 977.2 +4.3 +6.4 0.1
С 10-14
{14}
4800 м ливневой дождь {морось} ?/? +1.2 990.3 979.5 0.4
С 10-14
{16}
6000 м слаб. снег {морось} ?/? +0.8 993.1 982.2 0.2
С 8-12
{14}
1000 м слаб. снег {морось} ?/? -0.6 996.1 985.2 0.4
С 6-10
{12}
12 км снежные зёрна {ливн. осадки, морось} 9/9 400 м
[]
-0.4 998.8 987.9 0.1
С 5-10
{12}
50 км в посл. час морось {ливн. осадки} ясно -0.3 1001.2 990.2
С 5-10
{10}
50 км {ливн. осадки, снег} ясно -0.4 1003.5 992.5 1
СЗ 6-9
{9}
50 км ясно -0.8 1005.7 994.7
С 4-8
{9}
50 км ясно -1.1 1007.6 996.5
СЗ 5-6
{7}
50 км ясно -1.8 1008.8 997.7
СЗ 5-6
{7}
50 км ясно -2.0 1010.0 998.9
СЗ 5-6
{7}
50 км ясно -2.2 1011.5 1000.4
СЗ 5-8
{8}
50 км ясно -2.1 1012.3 1001.2 -2.3 +4.8
СЗ 4-5
{7}
50 км ясно -2.4 1013.3 1002.1
СЗ 1-2
{5}
50 км ясно -2.7 1014.5 1003.3
З 4-5
{5}
45 км ясно -1.2 1015.5 1004.3
З 3-4
{5}
40 км ясно -1.0 1016.2 1005.0
ЮЗ 3-4
{4}
45 км ясно -0.6 1016.2 1005.1
З 4-5
{6}
45 км ясно 0.0 1016.3 1005.2
З 5-6
{6}
45 км ясно -0.2 1016.6 1005.5
ЮЗ 5-7
{7}
50 км ясно 0.0 1016.3 1005.2
ЮЗ 6-7
{7}
50 км ясно 0.0 1015.9 1004.8
ЮЗ 4-6
{8}
50 км 4/0
[]
+0.3 1015.2 1004.1
ЮЗ 5-8
{8}
45 км 1/0
[]
+1.5 1014.4 1003.3
Ю 12-14
{14}
45 км ясно +2.8 1013.0 1002.0 -2.9 +3.2
Ю 13-14
{15}
45 км 4/4 1170 м
[]
+2.9 1012.3 1001.3
Ю 11-13
{14}
45 км 9/9 500 м
[]
+2.4 1011.2 1000.2
Ю 12-14
{14}
40 км 6/6 540 м
[]
+2.8 1010.1 999.1
Ю 12-16
{16}
35 км 3/3 500 м
[]
+2.9 1008.6 997.6
Ю 16-19
{19}
28 км 3/0
[]
+4.5 1006.6 995.7
Ю 18-22
{22}
17 км 10/0
[]
+4.5 1004.4 993.6
Ю 17-23
{23}
9000 м слаб. дождь 10/10 750 м
[]
+4.3 1003.0 992.2 0.1
Ю 18-21
{22}
24 км в посл. час дождь {ливн. осадки} 8/8 1170 м
[]
+4.8 1001.8 991.0
Ю 18-24
{24}
22 км {ливн. осадки, дождь} 10/10 1050 м
[]
+4.8 1000.6 989.8
ЮЗ 17-22
{23}
26 км {ливн. осадки, дождь} 10/10 750 м
[]
+4.7 999.9 989.1
ЮЗ 18-22
{23}
22 км {ливн. осадки, дождь} 10/10 700 м
[]
+4.5 999.5 988.7
ЮЗ 16-21
{23}
11 км морось {ливн. осадки, дождь} ?/? +4.2 999.6 988.8 +2.3 +4.9 0.2
ЮЗ 14-19
{20}
12 км слаб. ливневой дождь 10/10 420 м
[]
+3.8 1000.1 989.3 0.2
ЮЗ 14-18
{18}
45 км в посл. час дождь {ливн. осадки, морось} 3/3 360 м
[]
+4.0 1000.6 989.8 0.1
ЮЗ 10-14
{17}
45 км {ливн. осадки, морось} 9/9 570 м
[]
+4.0 1001.4 990.6
ЮЗ 10-12
{13}
50 км {ливн. осадки, морось} 3/3 540 м
[]
+4.0 1001.7 990.9
ЮЗ 6-7
{12}
45 км {ливн. осадки, морось} 10/10 450 м
[]
+4.2 1002.4 991.6
Ю 8-10
{10}
45 км {ливн. осадки, морось} 9/9 450 м
[]
+4.5 1002.0 991.2 0.3
Ю 8-9
{10}
45 км 10/10 270 м
[]
+4.7 1002.4 991.6
ЮЗ 8-11
{11}
40 км 4/4 360 м
[]
+5.0 1002.4 991.6
ЮЗ 9-11
{11}
35 км 5/5 270 м
[]
+5.3 1002.6 991.8
ЮЗ 9-11
{11}
30 км 6/6 270 м
[]
+5.3 1002.7 991.9
ЮЗ 8-9
{10}
28 км 3/3 270 м
[]
+5.3 1002.8 992.0
ЮЗ 8-9
{10}
30 км 3/3 270 м
[]
+5.2 1002.6 991.8 +3.7 +5.4
ЮЗ 6-7
{9}
29 км 1/1 270 м
[]
+5.1 1002.7 991.9
Ю 8-9
{9}
40 км 10/10 300 м
[]
+5.4 1002.7 991.9
ЮЗ 6-8
{9}
40 км 5/5 300 м
[]
+5.3 1002.6 991.8
ЮЗ 6-7
{8}
40 км 9/9 300 м
[]
+5.2 1002.3 991.5
ЮЗ 8-9
{9}
35 км 4/4 660 м
[]
+5.3 1001.7 990.9
Ю 6-7
{9}
35 км 3/0
[]
+5.3 1001.6 990.8
ЮЗ 5-7
{7}
30 км ясно +5.0 1001.3 990.5
ЮЗ 5-6
{6}
27 км ясно +4.6 1000.9 990.1
ЮЗ 5-6
{6}
22 км ясно +4.2 1000.4 989.6
Ю 4-6
{6}
25 км 5/5 270 м
[]
+4.6 999.9 989.1
ЮЗ 3-4
{7}
22 км 10/10 270 м
[]
+4.0 999.8 989.0
ЮЗ 2-4
{4}
24 км 8/8 270 м
[]
+3.8 999.2 988.4 +3.7 +5.4
Ю 6-7
{7}
45 км 10/10 240 м
[]
+4.7 999.0 988.2
Ю 6-7
{7}
45 км 8/8 240 м
[]
+4.4 998.8 988.0
Ю 6-7
{7}
35 км 10/10 240 м
[]
+4.0 998.7 987.9
Ю 6-7
{7}
11 км слаб. дождь {морось} 10/10 210 м
[]
+3.8 997.9 987.1 0.2
Ю 5-6
{7}
28 км слаб. дождь {морось} 10/10 240 м
[]
+3.5 997.3 986.5 0.5
Ю 5-6
{6}
20 км слаб. дождь {морось} 10/10 240 м
[]
+2.8 996.6 985.8 2
Ю 5-6
{7}
13 км слаб. дождь 10/10 180 м
[]
+2.0 996.1 985.2 0.4
Ю 5-6
{7}
12 км морось {дождь} 10/10 180 м
[]
+2.4 995.6 984.8 0.5
Ю 4-6
{6}
16 км слаб. дождь {морось} 10/10 210 м
[]
+2.6 995.1 984.3 0.1
ЮЗ 4-5
{6}
24 км ливневой дождь {морось} 10/10 330 м
[]
+2.3 995.0 984.2
ЮЗ 4-5
{5}
50 км в посл. час осадки {ливн. осадки} 10/10 360 м
[]
+2.5 994.4 983.6
ЮЗ 5-6
{6}
30 км осадки {ливн. осадки} 10/10 270 м
[]
+2.4 994.4 983.6 +1.8 +4.8 3
ЮЗ 5-7
{7}
35 км {осадки} 10/10 360 м
[]
+2.5 994.5 983.7
ЮЗ 5-6
{9}
40 км {ливн. осадки, осадки} 4/4 360 м
[]
+2.8 994.5 983.7
ЮЗ 8-11
{11}
45 км {ливн. осадки, осадки} 10/10 360 м
[]
+3.4 994.2 983.4
Ю 9-11
{11}
35 км {ливн. осадки, осадки} 10/10 300 м
[]
+3.5 994.1 983.3
ЮЗ 6-8
{11}
24 км {ливн. осадки, осадки} 10/10 300 м
[]
+3.6 994.2 983.4
ЮЗ 6-8
{9}
19 км {ливн. осадки, осадки} 10/10 330 м
[]
+3.4 993.9 983.1
Ю 9-11
{11}
18 км 10/10 300 м
[]
+4.3 993.5 982.8
Ю 8-9
{10}
17 км в посл. час морось {ливн. осадки} 10/10 360 м
[]
+4.5 993.5 982.8
Ю 7-9
{9}
16 км {ливн. осадки, морось} 10/10 300 м
[]
+4.1 993.5 982.8
Ю 9-11
{11}
18 км {ливн. осадки, морось} 10/10 400 м
[]
+3.9 993.5 982.7
Ю 7-9
{11}
22 км {ливн. осадки, морось} 10/10 630 м
[]
+4.0 993.3 982.6
ЮВ 7-8
{9}
14 км {ливн. осадки, морось} 10/10 270 м
[]
+3.7 993.2 982.4 +2.3 +4.6
ЮВ 8-9
{9}
14 км 10/10 240 м
[]
+3.8 993.4 982.6
ЮВ 8-9
{10}
28 км 10/10 1410 м
[]
+3.9 993.4 982.6
ЮВ 8-9
{10}
25 км 10/10 1500 м
[]
+3.7 993.4 982.6
Местоположение метеостанции Акстал (Швеция): широта 58.57 долгота 14.57 высота над уровнем моря 91 м.
В архиве по умолчанию представлена погода в Акстале за последнюю неделю. Архивные данные за месяц целиком и за предыдущие месяцы, начиная с января 2011 года, Вы можете получить, выбрав интересующий диапазон дат из раскрывающегося списка и нажав кнопку "Найти!".
*Определитесь, кто Вы:
Внимание! Время в таблицах - всемирное. Для получения местного времени необходимо прибавить поправку, которая равна 1 ч.
Смотрите также архив погоды в соседних городах и на ближайших метеорологических станциях:
Партнеры нашего сайта:      
Пояснения к столбцам:
  • Ветер - указаны скорость ветра в м/с - средняя за 10 мин, порывы в срок и между сроками (в фигурных скобках) и направление, откуда дует ветер: С - северный,
  • СВ - северо-восточный, В - восточный, ЮВ - юго-восточный, Ю - южный, ЮЗ - юго-западный, З - западный, СЗ - северо-западный.
  • Видимость - горизонтальная дальность видимости в метрах или километрах. При видимости от 1 до 10 км при отсутствии осадков обычно наблюдается дымка, при ухудшении видимости до 1 км и менее - туман. В сухую погоду видимость может ухудшаться дымом, пылью или мглою.
  • Явления - указаны атмосферные явления, наблюдавшиеся в срок или в последний час перед сроком; фигурными скобками обозначены явления, наблюдавшиеся между сроками (за 1-3 часа до срока); квадратными скобками обозначены град или гололедные отложения с указанием их диаметра в мм.
  • Облачность - указаны через наклонную черту общая и нижняя облачность в баллах и высота нижней границы облаков в метрах; квадратными скобками обозначены формы облаков: Ci - перистые, Cs - перисто-слоистые, Cc - перисто-кучевые, Ac - высококучевые, As - высокослоистые, Sc - слоисто-кучевые, Ns - слоисто-дождевые, Cu - кучевые, Cb - кучево-дождевые. Подробнее классификацию облаков см. в Атласе облаков (PDF).
  • T - Температура воздуха - температура, измеренная на высоте 2 м над землей.
  • Td - Температура точки росы - температура, при понижении до которой содержащийся в воздухе водяной пар достигнет насыщения.
  • f - Относительная влажность воздуха - влажноcть воздуха, измеренная на высоте 2 м над землей.
  • Te - Эффективная температура - температура, которую ощущает одетый по сезону человек в тени. Характеристика душности погоды. При расчете учитывается влияние влажности воздуха и скорости ветра на теплоощущения человека.
  • Tes - Эффективная температура на солнце - температура, которую ощущает человек, с поправкой на солнечный нагрев. Характеристика знойности погоды. Зависит от высоты солнца над горизонтом, облачности и скорости ветра. Ночью, в пасмурную погоду, а также при ветре 12 м/с и более поправка равна нулю.
  • P - Атмосферное давление - приведенное к уровню моря атмосферное давление.
  • Po - Атмосферное давление - измеренное на уровне метеостанции атмосферное давление.
  • Tmin - Минимальная температура - минимум температуры воздуха на высоте 2 м над землей.
  • Tmax - Максимальная температура - максимум температуры воздуха на высоте 2 м над землей.
  • R - Количество осадков - Количество выпавших осадков за период времени, мм. При наведении курсора мыши на число - период времени, за который выпало указанное количество осадков.
  • R24 - Количество осадков - Количество выпавших осадков за 24 часа, мм.
  • S - Снежный покров - Высота снежного покрова, см. При наведении курсора мыши на число - состояние снежного покрова и степень покрытия местности в баллах.